Location: Le Pont-de-Coulogne
(50.9242°N, 1.8700°E)
Time: 08:31:15
(UTC+00:00)

YAOGAN 11 - Pass Details

Date: 15 May 2026
Orbit: 599 x 646 km, 98.4° (Epoch: 5 June)

Event Time Altitude Azimuth Distance (km) Brightness Sun altitude
Rises 20:45:27 0° 16° (NNE) 2,944 8.0 -9.3°
Reaches altitude 10° 20:47:40 10° 18° (NNE) 2,038 7.1 -9.6°
Maximum altitude 20:52:07 75° 103° (ESE) 671 4.1 -10.0°
Drops below altitude 10° 20:56:34 10° 190° (S) 2,039 6.3 -10.5°
Enters shadow 20:58:39 - 192° (SSW) 2,897 7.1 -10.7°
